Home > Weather > Gjøvik > Past weeks

Flag for Norway Past Weather in Gjøvik, Norway — Yesterday and Last 2 Weeks

Now
67 °F

Mild.


Feels Like: 67 °F
Forecast: 57 / 75 °F
Wind: 2 mph from South

Location: Lillehammer-Saetherengen

Current Time: Jul 23, 2016 at 1:19:24 PM

Latest Report: Jul 23, 2016 at 12:00 PM


Visibility: N/A

Pressure: 30.10 "Hg

Humidity: 77%

Dew Point: 60 °F

Location of GjøvikLocation

Past Weather in Gjøvik — Graph

°F

Gjøvik Temperature Yesterday

Maximum temperature yesterday: 77 °F (at 3:00 PM)
Minimum temperature yesterday: 59 °F (at 5:00 AM)
Average temperature yesterday: 67 °F

High & Low Weather Summary for the Past Weeks

 TemperatureHumidityPressure
High77 °F (Jul 20, 5:00 PM)96% (Jul 11, 5:00 AM)30.10 "Hg (Jul 11, 5:00 AM)
Low49 °F (Jul 19, 6:00 AM)33% (Jul 8, 5:00 PM)29.35 "Hg (Jul 11, 7:00 PM)
Average61 °F70%29.79 "Hg
* Reported Jul 8 12:00 PM — Jul 23 12:00 PM, Gjøvik, Weather by CustomWeather, © 2016

Note: Actual official high and low records may vary slightly from our data, if they occured in-between our weather recording intervals... More about our weather records

Advertising

Gjøvik Weather History for the Previous 24 Hours

Scroll right to see more
 ConditionsComfort  
Time TempWeatherWind HumidityBarometerVisibility
12:00 PM
Sat, Jul 23
67 °FMild.2 mph77%30.10 "HgN/A
11:00 AM67 °FMild.2 mph77%30.09 "HgN/A
10:00 AM65 °FMild.2 mph80%30.10 "HgN/A
9:00 AM63 °FMild.1 mph80%30.10 "HgN/A
8:00 AM63 °FMild.No wind86%30.10 "HgN/A
7:00 AM60 °FCool.1 mph89%30.10 "HgN/A
6:00 AM59 °FCool.1 mph91%30.10 "HgN/A
5:00 AM58 °FCool.1 mph91%30.10 "HgN/A
4:00 AM58 °FCool.No wind90%30.10 "HgN/A
3:00 AM60 °FCool.1 mph87%30.09 "HgN/A
2:00 AM61 °FCool.1 mph84%30.09 "HgN/A
1:00 AM62 °FCool.1 mph81%30.08 "HgN/A
12:00 AM63 °FMild.1 mph80%30.08 "HgN/A
11:00 PM
Fri, Jul 22
64 °FMild.No wind82%30.07 "HgN/A
10:00 PM67 °FMild.1 mph79%30.06 "HgN/A
9:00 PM70 °FMild.No wind72%30.05 "HgN/A
8:00 PM70 °FMild.2 mph69%30.04 "HgN/A
7:00 PM72 °FMild.3 mph59%30.04 "HgN/A
6:00 PM75 °FMild.3 mph57%30.03 "HgN/A
5:00 PM76 °FMild.5 mph55%30.03 "HgN/A
4:00 PM75 °FMild.3 mph55%30.03 "HgN/A
3:00 PM77 °FMild.3 mph51%30.03 "HgN/A
2:00 PM73 °FMild.3 mph68%30.05 "HgN/A
1:00 PM71 °FMild.1 mph66%30.06 "HgN/A
Weather by CustomWeather, © 2016

See weather overviewHow to use our weather pages